Location: Eschentzwiller
(47.7125°N, 7.3981°E)
Time: 01:17:47
(UTC+00:00)

Cosmos 1980 Rocket - Pass Details

Date: 27 October 2020
Orbit: 831 x 848 km, 71.0° (Epoch: 26 November)

Event Time Altitude Azimuth Distance (km) Brightness Sun altitude
Rises 18:01:41 0° 171° (S) 3,378 5.2 -17.6°
Reaches altitude 10° 18:04:26 10° 160° (SSE) 2,445 4.4 -18.1°
Enters shadow 18:07:29 24° 130° (SE) 1,675 3.3 -18.6°
